Regional Weather Roundup
Issued by NWS Sioux Falls, SD

Home | Current Version | Previous Version | Text Only | Print | Product List | Glossary On
Versions: 1 2 3 4 5 6 7 8 9 10 11 12 13 14 15 16 17 18 19 20 21 22 23 24 25 26 27 28 29 30 31 32 33 34 35 36 37 38 39 40 41 42 43 44 45 46 47 48 49 50
000
ASUS43 KFSD 240710
RWRFSD

WEATHER ROUNDUP FOR SE SOUTH DAKOTA/SW MINNESOTA/NW IOWA
NATIONAL WEATHER SERVICE SIOUX FALLS SD
200 AM CDT SUN MAY 24 2015

NOTE: "FAIR" INDICATES FEW OR NO CLOUDS BELOW 12,000 FEET WITH NO
SIGNIFICANT WEATHER AND OR OBSTRUCTIONS TO VISIBILITY.


SDZ038>040-050-052>070-240800-
SOUTHEAST SOUTH DAKOTA

CITY           SKY/WX    TMP DP  RH WIND       PRES   REMARKS
BROOKINGS      CLOUDY    57  52  82 E7        30.06F
CHAMBERLAIN    DRIZZLE   55  55  99 E6        30.03F
HURON          CLOUDY    56  53  90 CALM      30.04F
MADISON        CLOUDY    57  57 100 SE5       30.07S
MITCHELL       LGT RAIN  57  56  96 SE5       30.04F FOG
SIOUX FALLS    LGT RAIN  59  57  93 SE6       30.06S
WINNER         LGT RAIN  56  54  93 E5        30.01F FOG
YANKTON        CLOUDY    57  55  94 E8        30.02F
$$

MNZ071-072-080-081-089-090-097-098-240800-
SOUTHWEST MINNESOTA

CITY           SKY/WX    TMP DP  RH WIND       PRES   REMARKS
FAIRMONT       CLOUDY    63  48  59 E6        30.09S
JACKSON        CLOUDY    61  55  82 E3        30.10R
LUVERNE        RAIN      61  55  82 CALM      30.08S
MARSHALL       CLOUDY    61  48  63 SE6       30.07S
MONTEVIDEO     CLOUDY    59  50  72 S7        30.09R
REDWOOD FALLS  CLOUDY    62  50  64 E7        30.08S
TRACY          CLOUDY    61  52  72 S6        30.08S
WINDOM         LGT RAIN  63  54  72 CALM      30.09S
WORTHINGTON    CLOUDY    59  54  82 SE13      30.09R
$$

IAZ001>003-012>014-020>022-031-032-NEZ013-014-SDZ071-240800-
NORTHWEST IOWA

CITY           SKY/WX    TMP DP  RH WIND       PRES   REMARKS
CHEROKEE       RAIN      60  60  99 CALM      30.07R
DENISON        CLOUDY    61  61 100 SE8       30.04R FOG
ESTHERVILLE    CLOUDY    61  54  77 E7        30.08S
LE MARS        LGT RAIN  59  59 100 NE5       30.06F
ORANGE CITY    RAIN      57  57 100 E3        30.06F
SHELDON        LGT RAIN  59  55  88 NE5       30.06S
SIOUX CITY     LGT RAIN  61  58  90 E7        30.04S
SPENCER        CLOUDY    62  57  83 E7        30.08R
STORM LAKE     LGT RAIN  61  57  88 SE8G14    30.08R
$$

ABBREVIATIONS USED IN REMARKS
   TC - TEMPERATURE IN CELSIUS
  WCI - WIND CHILL INDEX
   HX - HEAT INDEX
  VSB - VISIBILITY




USA.gov is the U.S. government's official web portal to all federal, state and local government web resources and services.